ECHOSTAR 14

Last updated on Tue Sep 22 2026 00:03:11 GMT+0000 (Coordinated Universal Time)

1 36499U 10010A 26264.49130907 -.00000004 00000+0 00000+0 0 9999 2 36499 0.0195 204.6908 0001990 320.0901 253.5758 1.00271366 47519
UTC large
Height (km)
Speed (km/s)
/
Latitude / Longitude
Inclination (degrees)
Orbital Period (minutes)
Azimuth
Elevation
Range (km)
Doppler Factor

Next 0 passes for location: London (51.5072 / 0.1276)

No passes found over London.
ECHOSTAR 14